Погода в Нейтрино

Россия / Кабардино-Балкарская Республика     43°16′42″N   42°41′18″E
темп.,
°C
ветер,
м/с
пор.,
м/с
влажн.,
%
обл.,
%
осадки,
мм/ч
давл.,
гПа
погр.,
м
27 февраля, сб
сб2700:00−13юз12760 0.0 102621
03:00−13юз22750 0.0 102421
06:00−13зюз12670 0.0 102321
09:00−7зюз11690 0.0 102240
12:00−4зюз12728 0.0 1019442
15:00−5юз119031 0.1 1018370
18:00−11ююз229599 0.1 101921
21:00−14юз229472 0.2 101922
28 февраля, вс
вс2800:00−15юз228338 0.0 101821
03:00−15юз338940 0.0 101826
06:00−14юз439436 0.0 101732
09:00−10ююз449358 0.1 1016181
12:00−7ююз558988 0.6 1015533
15:00−7ююз459194 2.8 1016534
18:00−10ююз3496100 3.4 1017170
21:00−11ююз3496100 6.3 1019136
1 марта, пн
пн100:00−12ююз3396100 2.7 1020117
03:00−13юз3396100 5.8 1021130
06:00−14юз3396100 2.0 1023128
09:00−14юз3392100 2.9 1025381
12:00−12юз337275 0.4 1025959
15:00−12юз227366 0.6 1025884
18:00−19ююз229656 0.2 102720
21:00−20ююз229678 0.3 102921
2 марта, вт
вт200:00−21юз229769 0.1 103022
03:00−22юз339581 0.1 103024
06:00−22юз238747 0.0 103021
09:00−16юз237724 0.0 1029113
12:00−13юз337710 0.0 1028554
15:00−13юз448434 0.1 1026544
18:00−18юз449665 0.1 102641
21:00−19юз549781 0.3 102757
3 марта, ср
ср300:00−19юз5497100 0.1 102671
03:00−19юз5596100 0.1 102595
06:00−19юз5595100 0.2 102396
09:00−16юз5592100 0.3 1022250
12:00−13юз5586100 0.3 1021537
15:00−12юз5586100 0.6 1021703
18:00−17юз4395100 0.4 102240
21:00−19юз339793 0.6 102423